Weather History for Okeechobee, FL

Change the Weather History Date:

Tuesday, February 26, 2013

  Actual Average Record
Temperature  
Mean Temperature 77 °F -  
Max Temperature 86 °F 74 °F 86 °F (2013)
Min Temperature 68 °F 50 °F 31 °F (1967)
Cooling Degree Days 12    
Growing Degree Days 27 (Base 50)    
Moisture  
Dew Point 70 °F    
Average Humidity 80    
Maximum Humidity 100    
Minimum Humidity 54    
Precipitation  
Precipitation 0.00 in - - ()
Sea Level Pressure  
Sea Level Pressure 29.84 in    
Wind  
Wind Speed 11 mph (South)    
Max Wind Speed 25 mph    
Max Gust Speed 33 mph    
Visibility 9 miles    
Events      
Averages and records for this station are not official NWS values.
T = Trace of Precipitation, MM = Missing Value Source: NWS Daily Summary

Daily Weather History Graph

Daily Weather History Graph

Search for Another Location

Airport:

Trip Planner

Search our weather history database for the weather conditions in past years. The results will help you decide how hot, cold, wet, or windy it might be!

Date:

Astronomy

Feb. 26, 2013 Rise Set
Actual Time 6:50 AM EST 6:22 PM EST
Civil Twilight 6:26 AM EST 6:46 PM EST
Nautical Twilight 5:59 AM EST 7:13 PM EST
Astronomical Twilight 5:32 AM EST 7:40 PM EST
Moon 7:25 PM EST (2/26) 7:01 AM EST (2/26)
Length of Visible Light 12h 19m
Length of Day
11h 32m
Full, 99% of the Moon is Illuminated
Feb 26
Full
Mar 4
Last Quarter
Mar 11
New
Mar 19
First Quarter
Mar 27
Full

Hourly Weather History & Observations

Time (EST) Temp. Heat Index Dew Point Humidity Pressure Visibility Wind Dir Wind Speed Gust Speed Precip Events Conditions
12:15 AM 71.6 °F - 69.8 °F 94% 29.84 in 10.0 mi SE 9.2 mph - N/A   Clear
12:35 AM 71.6 °F - 69.8 °F 94% 29.84 in 10.0 mi SSE 8.1 mph - N/A   Scattered Clouds
12:55 AM 71.6 °F - 69.8 °F 94% 29.84 in 10.0 mi SSE 4.6 mph - N/A   Mostly Cloudy
1:15 AM 73.4 °F - 69.8 °F 88% 29.83 in 10.0 mi SSE 8.1 mph - N/A   Overcast
1:35 AM 71.6 °F - 69.8 °F 94% 29.82 in 10.0 mi SSE 10.4 mph - N/A   Mostly Cloudy
1:55 AM 73.4 °F - 71.6 °F 94% 29.82 in 10.0 mi SSE 6.9 mph - N/A   Mostly Cloudy
2:15 AM 73.4 °F - 71.6 °F 94% 29.82 in 10.0 mi SSE 9.2 mph - N/A   Overcast
2:35 AM 73.4 °F - 71.6 °F 94% 29.82 in 7.0 mi SSE 9.2 mph - N/A   Overcast
2:55 AM 73.4 °F - 71.6 °F 94% 29.83 in 7.0 mi SSE 5.8 mph - N/A   Overcast
3:15 AM 71.6 °F - 71.6 °F 100% 29.82 in 7.0 mi SSE 8.1 mph - N/A   Overcast
3:35 AM 71.6 °F - 71.6 °F 100% 29.81 in 7.0 mi SSE 8.1 mph - N/A   Overcast
3:55 AM 71.6 °F - 71.6 °F 100% 29.81 in 7.0 mi SSE 6.9 mph - N/A   Overcast
4:15 AM 71.6 °F - 71.6 °F 100% 29.81 in 7.0 mi SSE 5.8 mph - N/A   Overcast
4:35 AM 71.6 °F - 71.6 °F 100% 29.80 in 7.0 mi SSE 9.2 mph - N/A   Overcast
4:55 AM 73.4 °F - 71.6 °F 94% 29.80 in 7.0 mi SSE 8.1 mph - N/A   Overcast
5:15 AM 73.4 °F - 71.6 °F 94% 29.80 in 7.0 mi SSE 11.5 mph 16.1 mph N/A   Overcast
5:35 AM 73.4 °F - 71.6 °F 94% 29.81 in 7.0 mi SSE 10.4 mph 16.1 mph N/A   Overcast
5:55 AM 73.4 °F - 71.6 °F 94% 29.81 in 7.0 mi SE 9.2 mph - N/A   Overcast
6:15 AM 73.4 °F - 71.6 °F 94% 29.83 in 7.0 mi SSE 8.1 mph - N/A   Overcast
6:35 AM 73.4 °F - 71.6 °F 94% 29.84 in 7.0 mi SSE 8.1 mph - N/A   Overcast
6:55 AM 73.4 °F - 71.6 °F 94% 29.84 in 7.0 mi SSE 8.1 mph - N/A   Overcast
7:15 AM 73.4 °F - 71.6 °F 94% 29.84 in 7.0 mi SSE 10.4 mph - N/A   Mostly Cloudy
7:35 AM 73.4 °F - 71.6 °F 94% 29.84 in 7.0 mi SSE 11.5 mph - N/A   Mostly Cloudy
7:55 AM 73.4 °F - 71.6 °F 94% 29.85 in 7.0 mi SSE 9.2 mph - N/A   Mostly Cloudy
8:15 AM 73.4 °F - 71.6 °F 94% 29.85 in 7.0 mi SSE 11.5 mph 20.7 mph N/A   Mostly Cloudy
8:55 AM 77.0 °F - 71.6 °F 83% 29.87 in 7.0 mi South 11.5 mph 19.6 mph N/A   Scattered Clouds
9:15 AM 78.8 °F - 71.6 °F 78% 29.87 in 10.0 mi South 12.7 mph 23.0 mph N/A   Scattered Clouds
9:35 AM 78.8 °F - 71.6 °F 78% 29.87 in 10.0 mi South 17.3 mph 23.0 mph N/A   Scattered Clouds
9:55 AM 78.8 °F - 71.6 °F 78% 29.87 in 10.0 mi South 18.4 mph 24.2 mph N/A   Scattered Clouds
10:15 AM 78.8 °F - 71.6 °F 78% 29.86 in 10.0 mi South 15.0 mph 24.2 mph N/A   Scattered Clouds
10:35 AM 80.6 °F 84.6 °F 71.6 °F 74% 29.86 in 10.0 mi South 16.1 mph 20.7 mph N/A   Mostly Cloudy
10:55 AM 82.4 °F 87.2 °F 71.6 °F 70% 29.87 in 10.0 mi South 18.4 mph 25.3 mph N/A   Mostly Cloudy
11:15 AM 82.4 °F 86.3 °F 69.8 °F 66% 29.88 in 10.0 mi South 18.4 mph 24.2 mph N/A   Scattered Clouds
11:35 AM 82.4 °F 86.3 °F 69.8 °F 66% 29.87 in 10.0 mi South 21.9 mph 25.3 mph N/A   Mostly Cloudy
11:55 AM 82.4 °F 86.3 °F 69.8 °F 66% 29.87 in 10.0 mi South 18.4 mph 25.3 mph N/A   Mostly Cloudy
12:15 PM 82.4 °F 85.4 °F 68.0 °F 62% 29.86 in 10.0 mi South 16.1 mph 21.9 mph N/A   Overcast
12:35 PM 84.2 °F 87.3 °F 68.0 °F 58% 29.85 in 10.0 mi South 15.0 mph 26.5 mph N/A   Mostly Cloudy
12:55 PM 86.0 °F 89.4 °F 68.0 °F 55% 29.83 in 10.0 mi SSW 23.0 mph 29.9 mph N/A   Scattered Clouds
1:15 PM 86.0 °F 89.4 °F 68.0 °F 55% 29.81 in 10.0 mi South 25.3 mph 33.4 mph N/A   Scattered Clouds
1:35 PM 86.0 °F 89.4 °F 68.0 °F 55% 29.81 in 10.0 mi SSW 20.7 mph 29.9 mph N/A   Scattered Clouds
1:55 PM 86.0 °F 89.4 °F 68.0 °F 55% 29.80 in 10.0 mi South 20.7 mph 29.9 mph N/A   Mostly Cloudy
2:15 PM 86.0 °F 89.4 °F 68.0 °F 55% 29.79 in 10.0 mi SSW 20.7 mph 31.1 mph N/A   Overcast
2:35 PM 86.0 °F 89.4 °F 68.0 °F 55% 29.80 in 10.0 mi South 20.7 mph 32.2 mph N/A   Overcast
2:55 PM 86.0 °F 89.4 °F 68.0 °F 55% 29.80 in 10.0 mi SSW 19.6 mph 28.8 mph N/A   Overcast
3:15 PM 84.2 °F 87.3 °F 68.0 °F 58% 29.79 in 10.0 mi SSW 19.6 mph 24.2 mph N/A   Overcast
3:35 PM 84.2 °F 86.6 °F 66.2 °F 55% 29.79 in 10.0 mi SSW 16.1 mph 27.6 mph N/A   Overcast
3:55 PM 82.4 °F 84.6 °F 66.2 °F 58% 29.81 in 10.0 mi SSW 17.3 mph 21.9 mph N/A   Overcast
4:15 PM 82.4 °F 84.6 °F 66.2 °F 58% 29.81 in 10.0 mi SSW 16.1 mph - N/A   Overcast
4:35 PM 80.6 °F 83.2 °F 68.0 °F 65% 29.81 in 10.0 mi SSW 11.5 mph - N/A   Overcast
4:55 PM 82.4 °F 84.6 °F 66.2 °F 58% 29.81 in 10.0 mi SSW 17.3 mph 24.2 mph N/A   Overcast
5:15 PM 82.4 °F 83.9 °F 64.4 °F 54% 29.82 in 10.0 mi SW 16.1 mph 26.5 mph N/A   Overcast
5:35 PM 80.6 °F 82.7 °F 66.2 °F 61% 29.82 in 10.0 mi SW 10.4 mph - N/A   Overcast
5:55 PM 80.6 °F 82.7 °F 66.2 °F 61% 29.82 in 10.0 mi SSW 12.7 mph - N/A   Overcast
6:15 PM 78.8 °F - 68.0 °F 69% 29.83 in 10.0 mi SSW 10.4 mph 20.7 mph N/A   Overcast
6:35 PM 78.8 °F - 68.0 °F 69% 29.84 in 10.0 mi SSW 8.1 mph - N/A   Overcast
6:55 PM 78.8 °F - 68.0 °F 69% 29.84 in 10.0 mi SW 13.8 mph 17.3 mph N/A   Overcast
7:15 PM 77.0 °F - 69.8 °F 78% 29.86 in 10.0 mi SSW 10.4 mph - N/A   Overcast
7:35 PM 73.4 °F - 71.6 °F 94% 29.85 in 7.0 mi SSW 8.1 mph - N/A   Overcast
7:55 PM 73.4 °F - 71.6 °F 94% 29.86 in 10.0 mi South 8.1 mph - N/A   Overcast
8:15 PM 73.4 °F - 71.6 °F 94% 29.86 in 10.0 mi SSW 5.8 mph - N/A   Overcast
8:35 PM 73.4 °F - 71.6 °F 94% 29.87 in 10.0 mi SW 8.1 mph - N/A   Overcast
8:55 PM 73.4 °F - 71.6 °F 94% 29.88 in 7.0 mi SW 6.9 mph - N/A   Overcast
9:15 PM 73.4 °F - 71.6 °F 94% 29.89 in 10.0 mi SW 9.2 mph - N/A   Overcast
9:35 PM 73.4 °F - 71.6 °F 94% 29.89 in 10.0 mi WSW 6.9 mph - N/A   Overcast
9:55 PM 71.6 °F - 69.8 °F 94% 29.90 in 10.0 mi WSW 5.8 mph - N/A   Overcast
10:15 PM 71.6 °F - 68.0 °F 88% 29.90 in 10.0 mi WSW 5.8 mph - N/A   Overcast
10:35 PM 71.6 °F - 68.0 °F 88% 29.90 in 10.0 mi WSW 5.8 mph - N/A   Mostly Cloudy
10:55 PM 69.8 °F - 68.0 °F 94% 29.90 in 10.0 mi SW 5.8 mph - N/A   Scattered Clouds
11:15 PM 68.0 °F - 66.2 °F 94% 29.90 in 10.0 mi WSW 6.9 mph - N/A   Scattered Clouds
11:35 PM 69.8 °F - 66.2 °F 88% 29.90 in 10.0 mi WSW 5.8 mph - N/A   Mostly Cloudy